Opa-locka, FL

8:15 PM EST on February 20, 2017 (GMT -0500)
Opa Locka

Weather History for KOPF - June, 2013

Change the Weather History Date:

Thursday, June 13, 2013

  Actual Average Record
Temperature  
Mean Temperature 81 °F -  
Max Temperature 88 °F 88 °F 95 °F (1952)
Min Temperature 75 °F 73 °F 64 °F (1971)
Cooling Degree Days 16    
Growing Degree Days 31 (Base 50)    
Moisture  
Dew Point 73 °F    
Average Humidity 80    
Maximum Humidity 96    
Minimum Humidity 61    
Precipitation  
Precipitation 0.02 in - - ()
Sea Level Pressure  
Sea Level Pressure 30.01 in    
Wind  
Wind Speed 2 mph (WNW)    
Max Wind Speed 14 mph    
Max Gust Speed 18 mph    
Visibility 10 miles    
Events      
Averages and records for this station are not official NWS values.
T = Trace of Precipitation, MM = Missing Value Source: NWS Daily Summary

Daily Weather History Graph

Daily Weather History Graph

Search for Another Location

Airport or City:

Trip Planner

Search our weather history database for the weather conditions in past years. The results will help you decide how hot, cold, wet, or windy it might be!

Date:

Astronomy

Jun. 13, 2013 Rise Set
Actual Time 6:28 AM EDT 8:13 PM EDT
Civil Twilight 6:02 AM EDT 8:39 PM EDT
Nautical Twilight 5:31 AM EDT 9:10 PM EDT
Astronomical Twilight 4:58 AM EDT 9:43 PM EDT
Moon 10:42 AM EDT (6/13) 11:44 PM EDT (6/13)
Length of Visible Light 14h 36m
Length of Day
13h 44m
Waxing Crescent, 21% of the Moon is Illuminated
Jun 13
Waxing Crescent
Jun 16
First Quarter
Jun 23
Full
Jun 30
Last Quarter
Jul 8
New

Hourly Weather History & Observations

Time (EDT) Temp. Heat Index Dew Point Humidity Pressure Visibility Wind Dir Wind Speed Gust Speed Precip Events Conditions
12:53 AM 75.9 °F - 73.0 °F 91% 30.05 in 10.0 mi NE 3.5 mph - N/A   Clear
1:53 AM 75.0 °F - 73.0 °F 94% 30.03 in 10.0 mi Calm Calm - N/A   Clear
2:53 AM 75.9 °F - 73.0 °F 91% 30.03 in 10.0 mi Calm Calm - N/A   Clear
3:53 AM 75.0 °F - 73.0 °F 94% 30.02 in 10.0 mi Calm Calm - N/A   Clear
4:35 AM 75.2 °F - 73.4 °F 94% 30.02 in 10.0 mi Calm Calm - N/A   Mostly Cloudy
4:53 AM 75.9 °F - 73.9 °F 94% 30.02 in 10.0 mi NNW 4.6 mph - N/A   Scattered Clouds
5:53 AM 75.9 °F - 73.9 °F 94% 30.02 in 10.0 mi Calm Calm - N/A   Clear
6:53 AM 75.0 °F - 73.9 °F 96% 30.03 in 10.0 mi Calm Calm - N/A   Clear
7:53 AM 78.1 °F - 75.0 °F 90% 30.04 in 10.0 mi Calm Calm - N/A   Clear
8:53 AM 81.0 °F 86.7 °F 75.0 °F 82% 30.04 in 10.0 mi Calm Calm - N/A   Clear
9:53 AM 82.9 °F 89.4 °F 73.9 °F 74% 30.06 in 10.0 mi Calm Calm - N/A   Scattered Clouds
12:53 PM 86.0 °F 93.8 °F 73.9 °F 67% 30.06 in 10.0 mi SE 3.5 mph - 0.02 in   Mostly Cloudy
2:53 PM 87.1 °F 93.6 °F 72.0 °F 61% 30.01 in 10.0 mi WSW 13.8 mph 18.4 mph N/A   Scattered Clouds
3:53 PM 87.1 °F 94.5 °F 73.0 °F 63% 30.00 in 10.0 mi West 11.5 mph - N/A   Clear
4:53 PM 84.9 °F 90.7 °F 72.0 °F 65% 29.98 in 10.0 mi West 5.8 mph - N/A   Clear
5:53 PM 84.9 °F 90.7 °F 72.0 °F 65% 29.97 in 10.0 mi Calm Calm - N/A   Scattered Clouds
6:53 PM 82.9 °F 88.0 °F 72.0 °F 69% 29.97 in 10.0 mi East 4.6 mph - N/A   Scattered Clouds
7:53 PM 82.0 °F 87.4 °F 73.0 °F 74% 29.97 in 10.0 mi Calm Calm - N/A   Scattered Clouds
8:53 PM 80.1 °F 83.6 °F 71.1 °F 74% 29.98 in 10.0 mi WSW 3.5 mph - N/A   Clear
9:53 PM 80.1 °F 83.8 °F 72.0 °F 76% 29.99 in 10.0 mi WNW 4.6 mph - N/A   Clear
10:53 PM 80.1 °F 83.8 °F 72.0 °F 76% 30.00 in 10.0 mi Calm Calm - N/A   Mostly Cloudy
11:06 PM 80.6 °F 84.6 °F 71.6 °F 74% 29.99 in 10.0 mi Calm Calm - N/A   Overcast
11:13 PM 80.6 °F 84.6 °F 71.6 °F 74% 29.99 in 10.0 mi Calm Calm - N/A   Mostly Cloudy
11:53 PM 79.0 °F - 72.0 °F 79% 29.99 in 10.0 mi Calm Calm - N/A   Clear